Time,TemperatureF,DewpointF,PressureIn,WindDirection,WindDirectionDegrees,WindSpeedMPH,WindSpeedGustMPH,Humidity,HourlyPrecipIn,Conditions,Clouds,dailyrainin,SoftwareType,DateUTC
2013-05-22 00:02:00,47.1,31.8,24.02,South,180,39.0,43.0,55,0.00,,,0.00,meteohub,2013-05-22 06:02:00,
2013-05-22 00:07:00,47.1,31.8,24.03,South,180,39.0,43.0,55,0.00,,,0.00,meteohub,2013-05-22 06:07:00,
2013-05-22 00:12:00,46.8,32.4,24.03,South,180,32.0,39.0,57,0.00,,,0.00,meteohub,2013-05-22 06:12:00,
2013-05-22 00:17:00,46.4,32.9,24.02,South,180,38.0,39.0,59,0.00,,,0.00,meteohub,2013-05-22 06:17:00,
2013-05-22 00:22:00,46.2,33.1,24.01,South,180,46.0,46.0,60,0.00,,,0.00,meteohub,2013-05-22 06:22:00,
2013-05-22 00:27:00,46.2,33.4,24.02,South,180,43.0,46.0,61,0.00,,,0.00,meteohub,2013-05-22 06:27:00,
2013-05-22 00:32:00,46.0,34.2,24.02,South,180,41.0,46.0,63,0.00,,,0.00,meteohub,2013-05-22 06:32:00,
2013-05-22 00:37:00,45.7,34.2,24.03,SSE,158,41.0,48.0,64,0.00,,,0.00,meteohub,2013-05-22 06:37:00,
2013-05-22 00:42:00,45.5,35.2,24.03,SSE,158,42.0,48.0,67,0.00,,,0.00,meteohub,2013-05-22 06:42:00,
2013-05-22 00:47:00,45.3,35.4,24.02,SSW,203,43.0,48.0,68,0.00,,,0.00,meteohub,2013-05-22 06:47:00,
2013-05-22 00:52:00,45.1,35.6,24.02,South,180,42.0,46.0,69,0.00,,,0.00,meteohub,2013-05-22 06:52:00,
2013-05-22 00:57:00,44.8,36.0,24.02,South,180,37.0,46.0,71,0.00,,,0.00,meteohub,2013-05-22 06:57:00,
2013-05-22 01:02:00,44.8,35.6,24.04,South,180,40.0,46.0,70,0.00,,,0.00,meteohub,2013-05-22 07:02:00,
2013-05-22 01:07:00,44.8,35.6,24.03,South,180,40.0,45.0,70,0.00,,,0.00,meteohub,2013-05-22 07:07:00,
2013-05-22 01:12:00,44.4,36.3,24.02,South,180,36.0,42.0,73,0.00,,,0.00,meteohub,2013-05-22 07:12:00,
2013-05-22 01:17:00,44.2,36.1,24.02,South,180,44.0,44.0,73,0.00,,,0.00,meteohub,2013-05-22 07:17:00,
2013-05-22 01:22:00,44.2,35.8,24.00,South,180,45.0,47.0,72,0.00,,,0.00,meteohub,2013-05-22 07:22:00,
2013-05-22 01:27:00,44.1,36.0,24.00,SSE,158,45.0,47.0,73,0.00,,,0.00,meteohub,2013-05-22 07:27:00,
2013-05-22 01:32:00,43.7,36.0,24.01,South,180,47.0,47.0,74,0.00,,,0.00,meteohub,2013-05-22 07:32:00,
2013-05-22 01:37:00,43.5,35.8,24.00,South,180,45.0,50.0,74,0.00,,,0.00,meteohub,2013-05-22 07:37:00,
2013-05-22 01:42:00,43.3,36.0,23.99,South,180,48.0,50.0,75,0.00,,,0.00,meteohub,2013-05-22 07:42:00,
2013-05-22 01:47:00,43.5,35.8,24.00,South,180,46.0,50.0,74,0.00,,,0.00,meteohub,2013-05-22 07:47:00,
2013-05-22 01:52:00,43.3,36.0,24.00,South,180,46.0,53.0,75,0.00,,,0.00,meteohub,2013-05-22 07:52:00,
2013-05-22 01:57:00,43.2,35.8,23.99,South,180,45.0,53.0,75,0.00,,,0.00,meteohub,2013-05-22 07:57:00,
2013-05-22 02:02:00,43.2,35.8,24.00,South,180,50.0,53.0,75,0.00,,,0.00,meteohub,2013-05-22 08:02:00,
2013-05-22 02:07:00,43.2,35.8,24.00,South,180,50.0,52.0,75,0.00,,,0.00,meteohub,2013-05-22 08:07:00,
2013-05-22 02:12:00,42.4,36.1,23.99,South,180,45.0,52.0,78,0.00,,,0.00,meteohub,2013-05-22 08:12:00,
2013-05-22 02:17:00,42.6,36.0,23.98,South,180,49.0,50.0,77,0.00,,,0.00,meteohub,2013-05-22 08:17:00,
2013-05-22 02:22:00,42.3,36.1,23.99,South,180,46.0,50.0,79,0.00,,,0.00,meteohub,2013-05-22 08:22:00,
2013-05-22 02:27:00,42.1,36.0,23.99,South,180,49.0,51.0,79,0.00,,,0.00,meteohub,2013-05-22 08:27:00,
2013-05-22 02:32:00,42.3,36.0,23.99,South,180,47.0,51.0,78,0.00,,,0.00,meteohub,2013-05-22 08:32:00,
2013-05-22 02:37:00,42.1,36.0,23.99,South,180,50.0,51.0,79,0.00,,,0.00,meteohub,2013-05-22 08:37:00,
2013-05-22 02:42:00,41.9,36.5,23.98,South,180,46.0,50.0,81,0.00,,,0.00,meteohub,2013-05-22 08:42:00,
2013-05-22 02:47:00,42.1,36.0,23.97,South,180,50.0,52.0,79,0.00,,,0.00,meteohub,2013-05-22 08:47:00,
2013-05-22 02:52:00,41.9,36.1,23.97,South,180,50.0,53.0,80,0.00,,,0.00,meteohub,2013-05-22 08:52:00,
2013-05-22 02:57:00,41.9,35.8,23.99,SSE,158,46.0,53.0,79,0.00,,,0.00,meteohub,2013-05-22 08:57:00,
2013-05-22 03:02:00,42.3,36.0,23.99,South,180,51.0,55.0,78,0.00,,,0.00,meteohub,2013-05-22 09:02:00,
2013-05-22 03:07:00,42.3,36.0,23.97,South,180,51.0,55.0,78,0.00,,,0.00,meteohub,2013-05-22 09:07:00,
2013-05-22 03:12:00,42.1,35.8,23.97,South,180,49.0,54.0,78,0.00,,,0.00,meteohub,2013-05-22 09:12:00,
2013-05-22 03:17:00,41.7,36.3,23.96,South,180,43.0,53.0,81,0.00,,,0.00,meteohub,2013-05-22 09:17:00,
2013-05-22 03:22:00,41.7,36.3,23.99,South,180,46.0,53.0,81,0.00,,,0.00,meteohub,2013-05-22 09:22:00,
2013-05-22 03:27:00,41.9,35.8,23.99,South,180,46.0,53.0,79,0.00,,,0.00,meteohub,2013-05-22 09:27:00,
2013-05-22 03:32:00,41.9,36.1,23.98,South,180,44.0,53.0,80,0.00,,,0.00,meteohub,2013-05-22 09:32:00,
2013-05-22 03:37:00,41.7,36.0,23.97,South,180,56.0,56.0,80,0.00,,,0.00,meteohub,2013-05-22 09:37:00,
2013-05-22 03:42:00,41.4,36.3,23.99,South,180,45.0,56.0,82,0.00,,,0.00,meteohub,2013-05-22 09:42:00,
2013-05-22 03:47:00,41.7,36.0,23.96,South,180,53.0,56.0,80,0.00,,,0.00,meteohub,2013-05-22 09:47:00,
2013-05-22 03:52:00,41.4,36.3,23.97,South,180,53.0,57.0,82,0.00,,,0.00,meteohub,2013-05-22 09:52:00,
2013-05-22 03:57:00,41.4,36.3,23.97,South,180,46.0,57.0,82,0.00,,,0.00,meteohub,2013-05-22 09:57:00,
2013-05-22 04:02:00,41.2,36.5,23.96,South,180,52.0,57.0,83,0.00,,,0.00,meteohub,2013-05-22 10:02:00,
2013-05-22 04:07:00,41.2,36.5,23.95,South,180,52.0,53.0,83,0.00,,,0.00,meteohub,2013-05-22 10:07:00,
2013-05-22 04:12:00,41.2,36.1,23.95,South,180,51.0,53.0,82,0.00,,,0.00,meteohub,2013-05-22 10:12:00,
2013-05-22 04:17:00,41.0,36.3,23.96,South,180,52.0,53.0,83,0.00,,,0.00,meteohub,2013-05-22 10:17:00,
2013-05-22 04:22:00,41.2,36.5,23.97,South,180,44.0,53.0,83,0.00,,,0.00,meteohub,2013-05-22 10:22:00,
2013-05-22 04:27:00,41.2,35.8,23.97,South,180,49.0,53.0,81,0.00,,,0.00,meteohub,2013-05-22 10:27:00,
2013-05-22 04:32:00,41.2,36.1,23.96,South,180,46.0,53.0,82,0.00,,,0.00,meteohub,2013-05-22 10:32:00,
2013-05-22 04:37:00,41.0,36.0,23.97,SSE,158,49.0,53.0,82,0.00,,,0.00,meteohub,2013-05-22 10:37:00,
2013-05-22 04:42:00,40.6,36.1,23.97,South,180,46.0,52.0,84,0.00,,,0.00,meteohub,2013-05-22 10:42:00,
2013-05-22 04:47:00,40.5,36.3,23.97,South,180,41.0,52.0,85,0.00,,,0.00,meteohub,2013-05-22 10:47:00,
2013-05-22 04:52:00,40.3,36.5,23.99,SSE,158,40.0,52.0,86,0.00,,,0.00,meteohub,2013-05-22 10:52:00,
2013-05-22 04:57:00,40.3,36.1,23.98,South,180,46.0,52.0,85,0.00,,,0.00,meteohub,2013-05-22 10:57:00,
2013-05-22 05:02:00,40.3,36.5,23.99,South,180,38.0,52.0,86,0.00,,,0.00,meteohub,2013-05-22 11:02:00,
2013-05-22 05:07:00,40.3,36.5,23.99,South,180,38.0,46.0,86,0.00,,,0.00,meteohub,2013-05-22 11:07:00,
2013-05-22 05:12:00,39.7,36.5,23.98,South,180,39.0,46.0,88,0.00,,,0.00,meteohub,2013-05-22 11:12:00,
2013-05-22 05:17:00,39.6,36.5,23.99,South,180,42.0,42.0,89,0.00,,,0.00,meteohub,2013-05-22 11:17:00,
2013-05-22 05:22:00,39.6,36.3,23.98,South,180,42.0,42.0,88,0.00,,,0.00,meteohub,2013-05-22 11:22:00,
2013-05-22 05:27:00,39.7,36.5,23.97,South,180,43.0,45.0,88,0.00,,,0.00,meteohub,2013-05-22 11:27:00,
2013-05-22 05:32:00,39.7,36.5,23.98,South,180,42.0,47.0,88,0.00,,,0.00,meteohub,2013-05-22 11:32:00,
2013-05-22 05:37:00,39.7,36.5,23.98,South,180,39.0,47.0,88,0.00,,,0.00,meteohub,2013-05-22 11:37:00,
2013-05-22 05:42:00,39.4,36.7,23.98,South,180,35.0,46.0,90,0.00,,,0.00,meteohub,2013-05-22 11:42:00,
2013-05-22 05:47:00,39.6,36.5,23.99,South,180,45.0,46.0,89,0.00,,,0.00,meteohub,2013-05-22 11:47:00,
2013-05-22 05:52:00,39.6,36.5,23.99,South,180,40.0,46.0,89,0.00,,,0.00,meteohub,2013-05-22 11:52:00,
2013-05-22 05:57:00,39.2,36.5,23.99,SSE,158,34.0,45.0,90,0.00,,,0.00,meteohub,2013-05-22 11:57:00,
2013-05-22 06:02:00,39.2,36.5,23.98,South,180,36.0,45.0,90,0.00,,,0.00,meteohub,2013-05-22 12:02:00,
2013-05-22 06:07:00,39.2,36.5,23.99,South,180,36.0,40.0,90,0.00,,,0.00,meteohub,2013-05-22 12:07:00,
2013-05-22 06:12:00,39.6,36.5,23.98,SSE,158,43.0,44.0,89,0.00,,,0.00,meteohub,2013-05-22 12:12:00,
2013-05-22 06:17:00,39.6,36.5,23.99,SSE,158,43.0,44.0,89,0.00,,,0.00,meteohub,2013-05-22 12:17:00,
2013-05-22 06:22:00,39.7,36.7,23.98,South,180,37.0,46.0,89,0.00,,,0.00,meteohub,2013-05-22 12:22:00,
2013-05-22 06:27:00,39.6,36.5,23.97,South,180,49.0,49.0,89,0.00,,,0.00,meteohub,2013-05-22 12:27:00,
2013-05-22 06:32:00,39.4,36.5,23.99,SSE,158,43.0,49.0,89,0.00,,,0.00,meteohub,2013-05-22 12:32:00,
2013-05-22 06:37:00,39.2,36.5,23.98,South,180,42.0,49.0,90,0.00,,,0.00,meteohub,2013-05-22 12:37:00,
2013-05-22 06:42:00,39.4,36.7,23.98,South,180,41.0,49.0,90,0.00,,,0.00,meteohub,2013-05-22 12:42:00,
2013-05-22 06:47:00,39.4,36.7,23.98,SE,135,46.0,47.0,90,0.00,,,0.00,meteohub,2013-05-22 12:47:00,
2013-05-22 06:52:00,39.4,37.0,23.97,South,180,42.0,47.0,91,0.00,,,0.00,meteohub,2013-05-22 12:52:00,
2013-05-22 06:57:00,39.4,37.0,23.97,South,180,43.0,46.0,91,0.00,,,0.00,meteohub,2013-05-22 12:57:00,
2013-05-22 07:02:00,39.4,37.0,23.98,South,180,43.0,46.0,91,0.00,,,0.00,meteohub,2013-05-22 13:02:00,
2013-05-22 07:07:00,39.4,37.0,23.97,South,180,43.0,45.0,91,0.00,,,0.00,meteohub,2013-05-22 13:07:00,
2013-05-22 07:12:00,39.2,37.0,23.98,SSE,158,40.0,43.0,92,0.00,,,0.00,meteohub,2013-05-22 13:12:00,
2013-05-22 07:17:00,39.4,37.0,23.97,South,180,51.0,51.0,91,0.00,,,0.00,meteohub,2013-05-22 13:17:00,
2013-05-22 07:22:00,39.4,37.0,23.99,SSE,158,43.0,51.0,91,0.00,,,0.00,meteohub,2013-05-22 13:22:00,
2013-05-22 07:27:00,39.4,37.0,23.97,South,180,42.0,51.0,91,0.00,,,0.00,meteohub,2013-05-22 13:27:00,
2013-05-22 07:32:00,39.4,37.0,23.98,SSE,158,43.0,51.0,91,0.00,,,0.00,meteohub,2013-05-22 13:32:00,
2013-05-22 07:37:00,39.9,37.6,23.97,SSE,158,41.0,47.0,91,0.00,,,0.00,meteohub,2013-05-22 13:37:00,
2013-05-22 07:42:00,40.8,37.2,23.96,South,180,49.0,49.0,87,0.00,,,0.00,meteohub,2013-05-22 13:42:00,
2013-05-22 07:47:00,40.3,37.0,23.93,South,180,53.0,53.0,88,0.00,,,0.00,meteohub,2013-05-22 13:47:00,
2013-05-22 07:52:00,40.3,37.0,23.95,South,180,51.0,60.0,88,0.00,,,0.00,meteohub,2013-05-22 13:52:00,
2013-05-22 07:57:00,40.3,36.7,23.96,SE,135,52.0,60.0,87,0.00,,,0.00,meteohub,2013-05-22 13:57:00,
2013-05-22 08:02:00,40.5,37.2,23.96,South,180,48.0,60.0,88,0.00,,,0.00,meteohub,2013-05-22 14:02:00,
2013-05-22 08:07:00,40.5,37.2,23.96,South,180,48.0,58.0,88,0.00,,,0.00,meteohub,2013-05-22 14:07:00,
2013-05-22 08:12:00,41.9,37.4,23.95,South,180,53.0,54.0,84,0.00,,,0.00,meteohub,2013-05-22 14:12:00,
2013-05-22 08:17:00,42.3,37.2,23.94,South,180,50.0,55.0,82,0.00,,,0.00,meteohub,2013-05-22 14:17:00,
2013-05-22 08:22:00,43.2,37.4,23.96,SE,135,46.0,55.0,80,0.00,,,0.00,meteohub,2013-05-22 14:22:00,
2013-05-22 08:27:00,43.2,37.4,23.96,South,180,48.0,55.0,80,0.00,,,0.00,meteohub,2013-05-22 14:27:00,
2013-05-22 08:32:00,42.4,36.7,23.96,South,180,49.0,53.0,80,0.00,,,0.00,meteohub,2013-05-22 14:32:00,
2013-05-22 08:37:00,41.7,36.7,23.96,South,180,52.0,53.0,82,0.00,,,0.00,meteohub,2013-05-22 14:37:00,
2013-05-22 08:42:00,42.4,37.0,23.96,SSE,158,50.0,55.0,81,0.00,,,0.00,meteohub,2013-05-22 14:42:00,
2013-05-22 08:47:00,43.5,37.8,23.96,SSE,158,49.0,55.0,80,0.00,,,0.00,meteohub,2013-05-22 14:47:00,
2013-05-22 08:52:00,44.2,37.8,23.95,SSE,158,52.0,53.0,78,0.00,,,0.00,meteohub,2013-05-22 14:52:00,
2013-05-22 08:57:00,44.1,37.9,23.95,South,180,46.0,53.0,79,0.00,,,0.00,meteohub,2013-05-22 14:57:00,
2013-05-22 09:02:00,44.1,37.0,23.96,SE,135,49.0,53.0,76,0.00,,,0.00,meteohub,2013-05-22 15:02:00,
2013-05-22 09:07:00,44.1,37.0,23.97,SE,135,49.0,53.0,76,0.00,,,0.00,meteohub,2013-05-22 15:07:00,
2013-05-22 09:12:00,44.4,37.6,23.95,South,180,50.0,54.0,77,0.00,,,0.00,meteohub,2013-05-22 15:12:00,
2013-05-22 09:17:00,45.1,37.4,23.96,South,180,53.0,54.0,74,0.00,,,0.00,meteohub,2013-05-22 15:17:00,
2013-05-22 09:22:00,45.7,37.6,23.97,SSE,158,46.0,54.0,73,0.00,,,0.00,meteohub,2013-05-22 15:22:00,
2013-05-22 09:27:00,45.9,37.8,23.96,South,180,47.0,53.0,73,0.00,,,0.00,meteohub,2013-05-22 15:27:00,
2013-05-22 09:32:00,45.5,37.8,23.97,South,180,48.0,53.0,74,0.00,,,0.00,meteohub,2013-05-22 15:32:00,
2013-05-22 09:37:00,44.6,36.9,23.96,South,180,50.0,53.0,74,0.00,,,0.00,meteohub,2013-05-22 15:37:00,
2013-05-22 09:42:00,45.0,37.2,23.97,SSE,158,51.0,53.0,74,0.00,,,0.00,meteohub,2013-05-22 15:42:00,
2013-05-22 09:47:00,45.3,37.2,23.97,South,180,49.0,53.0,73,0.00,,,0.00,meteohub,2013-05-22 15:47:00,
2013-05-22 09:52:00,45.5,37.8,23.97,South,180,47.0,53.0,74,0.00,,,0.00,meteohub,2013-05-22 15:52:00,
2013-05-22 09:57:00,45.0,37.6,23.96,South,180,49.0,53.0,75,0.00,,,0.00,meteohub,2013-05-22 15:57:00,
2013-05-22 10:02:00,44.6,37.2,23.98,SE,135,48.0,53.0,75,0.00,,,0.00,meteohub,2013-05-22 16:02:00,
2013-05-22 10:07:00,44.6,37.2,23.98,SE,135,48.0,50.0,75,0.00,,,0.00,meteohub,2013-05-22 16:07:00,
2013-05-22 10:12:00,45.1,37.4,23.98,South,180,46.0,50.0,74,0.00,,,0.00,meteohub,2013-05-22 16:12:00,
2013-05-22 10:17:00,44.6,36.9,23.97,South,180,47.0,49.0,74,0.00,,,0.00,meteohub,2013-05-22 16:17:00,
2013-05-22 10:22:00,44.1,37.4,23.97,South,180,46.0,49.0,77,0.00,,,0.00,meteohub,2013-05-22 16:22:00,
2013-05-22 10:27:00,44.2,37.6,23.97,South,180,47.0,48.0,77,0.00,,,0.00,meteohub,2013-05-22 16:27:00,
2013-05-22 10:32:00,44.1,37.0,23.97,South,180,47.0,49.0,76,0.00,,,0.00,meteohub,2013-05-22 16:32:00,
2013-05-22 10:37:00,43.9,36.5,23.99,South,180,47.0,49.0,75,0.00,,,0.00,meteohub,2013-05-22 16:37:00,
2013-05-22 10:42:00,43.7,37.2,24.00,South,180,37.0,49.0,78,0.00,,,0.00,meteohub,2013-05-22 16:42:00,
2013-05-22 10:47:00,44.1,37.0,24.01,South,180,38.0,49.0,76,0.00,,,0.00,meteohub,2013-05-22 16:47:00,
2013-05-22 10:52:00,43.7,37.2,24.01,South,180,36.0,48.0,78,0.00,,,0.00,meteohub,2013-05-22 16:52:00,
2013-05-22 10:57:00,43.0,36.9,24.01,South,180,34.0,43.0,79,0.00,,,0.00,meteohub,2013-05-22 16:57:00,
2013-05-22 11:02:00,42.6,36.9,24.01,South,180,35.0,40.0,80,0.00,,,0.00,meteohub,2013-05-22 17:02:00,
2013-05-22 11:07:00,42.6,36.9,24.01,South,180,35.0,40.0,80,0.00,,,0.00,meteohub,2013-05-22 17:07:00,
2013-05-22 11:12:00,41.9,36.9,24.01,South,180,36.0,37.0,82,0.00,,,0.00,meteohub,2013-05-22 17:12:00,
2013-05-22 11:17:00,41.5,37.9,24.01,South,180,36.0,42.0,87,0.00,,,0.00,meteohub,2013-05-22 17:17:00,
2013-05-22 11:22:00,41.7,38.5,24.01,South,180,36.0,42.0,88,0.00,,,0.00,meteohub,2013-05-22 17:22:00,
2013-05-22 11:27:00,42.1,38.1,23.99,South,180,45.0,45.0,86,0.00,,,0.00,meteohub,2013-05-22 17:27:00,
2013-05-22 11:32:00,42.3,37.4,24.00,South,180,47.0,47.0,83,0.00,,,0.00,meteohub,2013-05-22 17:32:00,
2013-05-22 11:37:00,43.0,37.6,23.98,South,180,45.0,49.0,81,0.00,,,0.00,meteohub,2013-05-22 17:37:00,
2013-05-22 11:42:00,43.2,37.4,23.99,South,180,42.0,51.0,80,0.00,,,0.00,meteohub,2013-05-22 17:42:00,
2013-05-22 11:47:00,43.9,38.1,23.99,South,180,38.0,51.0,80,0.00,,,0.00,meteohub,2013-05-22 17:47:00,
2013-05-22 11:52:00,44.4,37.9,23.98,South,180,40.0,51.0,78,0.00,,,0.00,meteohub,2013-05-22 17:52:00,
2013-05-22 11:57:00,44.4,38.3,23.98,South,180,45.0,46.0,79,0.00,,,0.00,meteohub,2013-05-22 17:57:00,
2013-05-22 12:02:00,44.6,38.5,23.99,South,180,46.0,46.0,79,0.00,,,0.00,meteohub,2013-05-22 18:02:00,
2013-05-22 12:07:00,44.6,38.5,23.98,South,180,46.0,46.0,79,0.00,,,0.00,meteohub,2013-05-22 18:07:00,
2013-05-22 12:12:00,44.1,37.4,23.98,South,180,49.0,49.0,77,0.00,,,0.00,meteohub,2013-05-22 18:12:00,
2013-05-22 12:17:00,43.9,37.4,23.99,South,180,43.0,49.0,78,0.00,,,0.00,meteohub,2013-05-22 18:17:00,
2013-05-22 12:22:00,43.9,38.1,24.00,South,180,38.0,49.0,80,0.00,,,0.00,meteohub,2013-05-22 18:22:00,
2013-05-22 12:27:00,44.1,37.6,24.01,South,180,37.0,49.0,78,0.00,,,0.00,meteohub,2013-05-22 18:27:00,
2013-05-22 12:32:00,44.1,37.9,24.00,South,180,38.0,44.0,79,0.00,,,0.00,meteohub,2013-05-22 18:32:00,
2013-05-22 12:37:00,44.6,38.1,24.00,South,180,37.0,40.0,78,0.00,,,0.00,meteohub,2013-05-22 18:37:00,
2013-05-22 12:42:00,45.0,38.8,24.01,South,180,30.0,40.0,79,0.00,,,0.00,meteohub,2013-05-22 18:42:00,
2013-05-22 12:47:00,45.5,38.7,24.01,South,180,33.0,40.0,77,0.00,,,0.00,meteohub,2013-05-22 18:47:00,
2013-05-22 12:52:00,45.7,37.9,24.00,South,180,34.0,39.0,74,0.00,,,0.00,meteohub,2013-05-22 18:52:00,
2013-05-22 12:57:00,46.0,38.5,24.01,South,180,32.0,38.0,75,0.00,,,0.00,meteohub,2013-05-22 18:57:00,
2013-05-22 13:02:00,46.2,38.5,24.01,SSE,158,31.0,38.0,74,0.00,,,0.00,meteohub,2013-05-22 19:02:00,
2013-05-22 13:07:00,46.2,38.5,24.01,SSE,158,31.0,38.0,74,0.00,,,0.00,meteohub,2013-05-22 19:07:00,
2013-05-22 13:12:00,45.9,38.1,24.01,South,180,32.0,34.0,74,0.00,,,0.00,meteohub,2013-05-22 19:12:00,
2013-05-22 13:17:00,45.3,38.1,24.01,South,180,30.0,35.0,76,0.00,,,0.00,meteohub,2013-05-22 19:17:00,
2013-05-22 13:22:00,45.3,38.1,24.01,South,180,34.0,37.0,76,0.00,,,0.00,meteohub,2013-05-22 19:22:00,
2013-05-22 13:27:00,45.0,38.1,24.01,South,180,34.0,37.0,77,0.00,,,0.00,meteohub,2013-05-22 19:27:00,
2013-05-22 13:32:00,45.1,37.9,24.01,South,180,35.0,37.0,76,0.00,,,0.00,meteohub,2013-05-22 19:32:00,
2013-05-22 13:37:00,45.1,37.9,24.01,South,180,36.0,37.0,76,0.00,,,0.00,meteohub,2013-05-22 19:37:00,
2013-05-22 13:42:00,45.1,39.0,24.02,SSE,158,27.0,36.0,79,0.00,,,0.00,meteohub,2013-05-22 19:42:00,
2013-05-22 13:47:00,45.0,38.5,24.02,SSE,158,32.0,36.0,78,0.00,,,0.00,meteohub,2013-05-22 19:47:00,
2013-05-22 13:52:00,44.8,37.9,24.00,South,180,40.0,40.0,77,0.00,,,0.00,meteohub,2013-05-22 19:52:00,
2013-05-22 13:57:00,44.8,38.3,24.01,South,180,36.0,40.0,78,0.00,,,0.00,meteohub,2013-05-22 19:57:00,
2013-05-22 14:02:00,45.1,37.4,24.00,South,180,46.0,46.0,74,0.00,,,0.00,meteohub,2013-05-22 20:02:00,
2013-05-22 14:07:00,45.1,37.4,24.00,South,180,46.0,46.0,74,0.00,,,0.00,meteohub,2013-05-22 20:07:00,
2013-05-22 14:12:00,45.9,37.0,24.01,South,180,43.0,46.0,71,0.00,,,0.00,meteohub,2013-05-22 20:12:00,
2013-05-22 14:17:00,45.9,37.8,24.00,South,180,41.0,46.0,73,0.00,,,0.00,meteohub,2013-05-22 20:17:00,
2013-05-22 14:22:00,46.2,37.8,24.00,South,180,39.0,46.0,72,0.00,,,0.00,meteohub,2013-05-22 20:22:00,
2013-05-22 14:27:00,46.0,37.6,24.00,South,180,43.0,43.0,72,0.00,,,0.00,meteohub,2013-05-22 20:27:00,
2013-05-22 14:32:00,45.9,38.1,24.00,South,180,38.0,44.0,74,0.00,,,0.00,meteohub,2013-05-22 20:32:00,
2013-05-22 14:37:00,46.2,37.0,24.00,South,180,40.0,44.0,70,0.00,,,0.00,meteohub,2013-05-22 20:37:00,
2013-05-22 14:42:00,46.6,37.8,24.00,South,180,37.0,44.0,71,0.00,,,0.00,meteohub,2013-05-22 20:42:00,
2013-05-22 14:47:00,46.4,37.9,24.01,South,180,36.0,43.0,72,0.00,,,0.00,meteohub,2013-05-22 20:47:00,
2013-05-22 14:52:00,46.4,38.3,24.00,South,180,36.0,41.0,73,0.00,,,0.00,meteohub,2013-05-22 20:52:00,
2013-05-22 14:57:00,46.4,38.3,24.00,South,180,37.0,41.0,73,0.00,,,0.00,meteohub,2013-05-22 20:57:00,
2013-05-22 15:02:00,46.4,38.3,24.00,South,180,36.0,41.0,73,0.00,,,0.00,meteohub,2013-05-22 21:02:00,
2013-05-22 15:07:00,46.4,38.3,24.00,South,180,36.0,39.0,73,0.00,,,0.00,meteohub,2013-05-22 21:07:00,
2013-05-22 15:12:00,46.9,37.6,24.00,South,180,37.0,38.0,70,0.00,,,0.00,meteohub,2013-05-22 21:12:00,
2013-05-22 15:22:00,47.8,38.8,24.00,South,180,36.0,37.0,71,0.00,,,0.00,meteohub,2013-05-22 21:22:00,
2013-05-22 15:27:00,47.7,37.9,23.99,South,180,34.0,39.0,69,0.00,,,0.00,meteohub,2013-05-22 21:27:00,
2013-05-22 15:32:00,48.2,38.5,23.99,South,180,36.0,39.0,69,0.00,,,0.00,meteohub,2013-05-22 21:32:00,
2013-05-22 15:37:00,48.2,38.1,24.00,South,180,37.0,40.0,68,0.00,,,0.00,meteohub,2013-05-22 21:37:00,
2013-05-22 15:42:00,48.4,38.3,23.99,South,180,36.0,40.0,68,0.00,,,0.00,meteohub,2013-05-22 21:42:00,
2013-05-22 15:47:00,48.7,39.0,24.00,South,180,34.0,40.0,69,0.00,,,0.00,meteohub,2013-05-22 21:47:00,
2013-05-22 15:52:00,49.3,39.2,24.01,South,180,32.0,40.0,68,0.00,,,0.00,meteohub,2013-05-22 21:52:00,
2013-05-22 15:57:00,49.5,37.8,24.01,South,180,35.0,40.0,64,0.00,,,0.00,meteohub,2013-05-22 21:57:00,
2013-05-22 16:02:00,49.5,38.7,24.01,SSE,158,30.0,37.0,66,0.00,,,0.00,meteohub,2013-05-22 22:02:00,
2013-05-22 16:07:00,49.5,38.7,24.00,SSE,158,30.0,37.0,66,0.00,,,0.00,meteohub,2013-05-22 22:07:00,
2013-05-22 16:12:00,49.3,37.9,24.00,SSE,158,37.0,37.0,65,0.00,,,0.00,meteohub,2013-05-22 22:12:00,
2013-05-22 16:17:00,49.5,38.7,24.00,South,180,40.0,40.0,66,0.00,,,0.00,meteohub,2013-05-22 22:17:00,
2013-05-22 16:27:00,49.8,38.1,24.01,SE,135,39.0,42.0,64,0.00,,,0.00,meteohub,2013-05-22 22:27:00,
2013-05-22 16:32:00,49.8,38.8,24.01,SE,135,38.0,46.0,66,0.00,,,0.00,meteohub,2013-05-22 22:32:00,
2013-05-22 16:37:00,49.8,38.1,24.00,South,180,46.0,46.0,64,0.00,,,0.00,meteohub,2013-05-22 22:37:00,
2013-05-22 16:42:00,49.8,38.1,24.01,SE,135,34.0,46.0,64,0.00,,,0.00,meteohub,2013-05-22 22:42:00,
2013-05-22 16:47:00,50.0,38.3,24.00,SE,135,47.0,47.0,64,0.00,,,0.00,meteohub,2013-05-22 22:47:00,
2013-05-22 16:52:00,50.0,38.7,24.01,SSE,158,36.0,47.0,65,0.00,,,0.00,meteohub,2013-05-22 22:52:00,
2013-05-22 16:57:00,49.6,39.2,24.01,SE,135,46.0,47.0,67,0.00,,,0.00,meteohub,2013-05-22 22:57:00,
2013-05-22 17:02:00,49.8,38.1,24.00,SSE,158,54.0,68.0,64,0.01,,,0.01,meteohub,2013-05-22 23:02:00,
2013-05-22 17:07:00,49.8,38.1,23.99,SSE,158,54.0,68.0,64,0.01,,,0.01,meteohub,2013-05-22 23:07:00,
2013-05-22 17:12:00,49.6,38.7,23.99,SSE,158,46.0,68.0,66,0.02,,,0.02,meteohub,2013-05-22 23:12:00,
2013-05-22 17:17:00,49.6,38.3,23.98,South,180,55.0,55.0,65,0.02,,,0.02,meteohub,2013-05-22 23:17:00,
2013-05-22 17:22:00,49.5,38.7,23.99,SSE,158,51.0,55.0,66,0.02,,,0.02,meteohub,2013-05-22 23:22:00,
2013-05-22 17:27:00,49.5,39.0,24.00,SE,135,51.0,55.0,67,0.02,,,0.02,meteohub,2013-05-22 23:27:00,
2013-05-22 17:32:00,49.5,39.4,23.99,SE,135,46.0,55.0,68,0.02,,,0.02,meteohub,2013-05-22 23:32:00,
2013-05-22 17:37:00,49.3,39.6,23.97,SSE,158,45.0,55.0,69,0.02,,,0.02,meteohub,2013-05-22 23:37:00,
2013-05-22 17:42:00,49.3,39.6,23.99,South,180,54.0,55.0,69,0.02,,,0.02,meteohub,2013-05-22 23:42:00,
2013-05-22 17:47:00,49.3,40.3,23.99,South,180,44.0,55.0,71,0.02,,,0.02,meteohub,2013-05-22 23:47:00,
2013-05-22 17:52:00,49.1,40.5,23.98,South,180,44.0,54.0,72,0.02,,,0.02,meteohub,2013-05-22 23:52:00,
2013-05-22 17:57:00,49.5,40.8,23.99,SSE,158,40.0,54.0,72,0.02,,,0.02,meteohub,2013-05-22 23:57:00,
2013-05-22 18:02:00,49.6,40.6,24.00,South,180,44.0,48.0,71,0.01,,,0.02,meteohub,2013-05-23 00:02:00,
2013-05-22 18:07:00,49.6,40.6,23.99,South,180,44.0,47.0,71,0.01,,,0.00,meteohub,2013-05-23 00:07:00,
2013-05-22 18:12:00,49.6,41.0,24.01,SSE,158,38.0,47.0,72,0.00,,,0.00,meteohub,2013-05-23 00:12:00,
2013-05-22 18:17:00,49.6,41.4,24.01,SE,135,35.0,46.0,73,0.00,,,0.00,meteohub,2013-05-23 00:17:00,
2013-05-22 18:22:00,50.0,40.6,24.01,SSE,158,39.0,46.0,70,0.00,,,0.00,meteohub,2013-05-23 00:22:00,
2013-05-22 18:27:00,49.6,41.0,24.00,South,180,43.0,46.0,72,0.00,,,0.00,meteohub,2013-05-23 00:27:00,
2013-05-22 18:32:00,49.6,41.4,24.00,South,180,41.0,44.0,73,0.00,,,0.00,meteohub,2013-05-23 00:32:00,
2013-05-22 18:37:00,49.8,41.5,24.00,South,180,45.0,45.0,73,0.00,,,0.00,meteohub,2013-05-23 00:37:00,
2013-05-22 18:42:00,49.8,41.5,23.99,South,180,48.0,50.0,73,0.00,,,0.00,meteohub,2013-05-23 00:42:00,
2013-05-22 18:47:00,49.8,41.9,24.00,South,180,42.0,50.0,74,0.00,,,0.00,meteohub,2013-05-23 00:47:00,
2013-05-22 18:52:00,50.0,41.7,24.00,South,180,46.0,50.0,73,0.00,,,0.00,meteohub,2013-05-23 00:52:00,
2013-05-22 18:57:00,49.8,41.9,24.01,South,180,43.0,48.0,74,0.00,,,0.00,meteohub,2013-05-23 00:57:00,
2013-05-22 19:02:00,50.0,42.1,24.01,South,180,43.0,46.0,74,0.00,,,0.00,meteohub,2013-05-23 01:02:00,
2013-05-22 19:07:00,50.0,42.1,24.00,South,180,43.0,46.0,74,0.00,,,0.00,meteohub,2013-05-23 01:07:00,
2013-05-22 19:12:00,50.2,41.9,24.01,South,180,44.0,44.0,73,0.00,,,0.00,meteohub,2013-05-23 01:12:00,
2013-05-22 19:17:00,50.2,41.9,24.01,South,180,47.0,47.0,73,0.00,,,0.00,meteohub,2013-05-23 01:17:00,
2013-05-22 19:22:00,50.2,41.9,24.02,South,180,49.0,49.0,73,0.00,,,0.00,meteohub,2013-05-23 01:22:00,
2013-05-22 19:27:00,50.5,41.5,24.02,SSE,158,49.0,49.0,71,0.00,,,0.00,meteohub,2013-05-23 01:27:00,
2013-05-22 19:32:00,50.2,42.3,24.03,SSE,158,41.0,49.0,74,0.00,,,0.00,meteohub,2013-05-23 01:32:00,
2013-05-22 19:37:00,49.5,42.6,24.02,South,180,41.0,49.0,77,0.00,,,0.00,meteohub,2013-05-23 01:37:00,
2013-05-22 19:42:00,49.5,42.8,24.03,SSE,158,43.0,49.0,78,0.00,,,0.00,meteohub,2013-05-23 01:42:00,
2013-05-22 19:47:00,49.3,43.0,24.03,SE,135,44.0,46.0,79,0.00,,,0.00,meteohub,2013-05-23 01:47:00,
2013-05-22 19:52:00,48.2,43.5,24.03,SSE,158,40.0,46.0,84,0.00,,,0.00,meteohub,2013-05-23 01:52:00,
2013-05-22 19:57:00,47.5,44.4,24.04,SE,135,37.0,46.0,89,0.00,,,0.00,meteohub,2013-05-23 01:57:00,
2013-05-22 20:02:00,46.9,44.4,24.03,SE,135,34.0,46.0,91,0.00,,,0.00,meteohub,2013-05-23 02:02:00,
2013-05-22 20:07:00,46.9,44.4,24.04,SE,135,34.0,41.0,91,0.00,,,0.00,meteohub,2013-05-23 02:07:00,
2013-05-22 20:12:00,46.6,45.0,24.03,South,180,38.0,41.0,94,0.00,,,0.00,meteohub,2013-05-23 02:12:00,
2013-05-22 20:17:00,46.6,45.1,24.04,SSE,158,35.0,42.0,95,0.00,,,0.00,meteohub,2013-05-23 02:17:00,
2013-05-22 20:22:00,46.6,44.6,24.03,SSW,203,36.0,42.0,93,0.00,,,0.00,meteohub,2013-05-23 02:22:00,
2013-05-22 20:27:00,46.6,45.0,24.03,SSE,158,34.0,42.0,94,0.00,,,0.00,meteohub,2013-05-23 02:27:00,
2013-05-22 20:32:00,46.6,45.0,24.03,SSE,158,30.0,42.0,94,0.00,,,0.00,meteohub,2013-05-23 02:32:00,
2013-05-22 20:37:00,46.4,44.8,24.03,SSE,158,27.0,42.0,94,0.00,,,0.00,meteohub,2013-05-23 02:37:00,
2013-05-22 20:42:00,46.2,44.6,24.03,SSE,158,23.0,37.0,94,0.00,,,0.00,meteohub,2013-05-23 02:42:00,
2013-05-22 20:47:00,46.0,44.6,24.03,South,180,21.0,34.0,95,0.00,,,0.00,meteohub,2013-05-23 02:47:00,
2013-05-22 20:52:00,46.4,44.8,24.03,South,180,21.0,28.0,94,0.00,,,0.00,meteohub,2013-05-23 02:52:00,
2013-05-22 20:57:00,46.0,45.0,24.03,South,180,18.0,24.0,96,0.00,,,0.00,meteohub,2013-05-23 02:57:00,
2013-05-22 21:02:00,45.9,45.1,24.03,South,180,21.0,24.0,97,0.00,,,0.00,meteohub,2013-05-23 03:02:00,
2013-05-22 21:07:00,45.9,45.1,24.02,South,180,21.0,24.0,97,0.00,,,0.00,meteohub,2013-05-23 03:07:00,
2013-05-22 21:12:00,45.9,44.8,24.02,South,180,28.0,28.0,96,0.00,,,0.00,meteohub,2013-05-23 03:12:00,
2013-05-22 21:17:00,45.9,44.8,24.01,South,180,30.0,30.0,96,0.00,,,0.00,meteohub,2013-05-23 03:17:00,
2013-05-22 21:22:00,46.2,44.2,24.01,South,180,32.0,32.0,93,0.00,,,0.00,meteohub,2013-05-23 03:22:00,
2013-05-22 21:27:00,46.8,44.2,24.02,South,180,29.0,35.0,91,0.00,,,0.00,meteohub,2013-05-23 03:27:00,
2013-05-22 21:32:00,45.9,44.4,24.02,South,180,32.0,35.0,95,0.00,,,0.00,meteohub,2013-05-23 03:32:00,
2013-05-22 21:37:00,46.2,44.2,24.01,South,180,36.0,37.0,93,0.00,,,0.00,meteohub,2013-05-23 03:37:00,
2013-05-22 21:42:00,46.8,44.1,24.01,South,180,34.0,39.0,90,0.00,,,0.00,meteohub,2013-05-23 03:42:00,
2013-05-22 21:47:00,46.4,44.2,24.03,South,180,29.0,39.0,92,0.00,,,0.00,meteohub,2013-05-23 03:47:00,
2013-05-22 21:52:00,46.2,44.2,24.02,South,180,27.0,39.0,93,0.00,,,0.00,meteohub,2013-05-23 03:52:00,
2013-05-22 21:57:00,46.0,44.1,24.02,SSE,158,31.0,34.0,93,0.00,,,0.00,meteohub,2013-05-23 03:57:00,
2013-05-22 22:02:00,46.0,44.1,24.01,SSE,158,34.0,34.0,93,0.00,,,0.00,meteohub,2013-05-23 04:02:00,
2013-05-22 22:07:00,46.0,44.1,24.01,SSE,158,34.0,34.0,93,0.00,,,0.00,meteohub,2013-05-23 04:07:00,
2013-05-22 22:12:00,46.6,44.1,24.02,South,180,40.0,40.0,91,0.00,,,0.00,meteohub,2013-05-23 04:12:00,
2013-05-22 22:17:00,46.8,43.7,24.03,SE,135,40.0,40.0,89,0.00,,,0.00,meteohub,2013-05-23 04:17:00,
2013-05-22 22:22:00,46.9,43.5,24.02,South,180,42.0,42.0,88,0.00,,,0.00,meteohub,2013-05-23 04:22:00,
2013-05-22 22:27:00,46.9,43.5,24.02,SE,135,40.0,42.0,88,0.00,,,0.00,meteohub,2013-05-23 04:27:00,
2013-05-22 22:32:00,46.8,43.7,24.02,South,180,40.0,47.0,89,0.00,,,0.00,meteohub,2013-05-23 04:32:00,
2013-05-22 22:37:00,46.8,44.1,24.02,South,180,40.0,47.0,90,0.00,,,0.00,meteohub,2013-05-23 04:37:00,
2013-05-22 22:42:00,46.4,44.2,24.02,SSE,158,36.0,47.0,92,0.00,,,0.00,meteohub,2013-05-23 04:42:00,
2013-05-22 22:47:00,45.9,43.9,24.02,South,180,40.0,46.0,93,0.01,,,0.01,meteohub,2013-05-23 04:47:00,
2013-05-22 22:52:00,46.2,43.7,24.02,South,180,45.0,45.0,91,0.01,,,0.01,meteohub,2013-05-23 04:52:00,
2013-05-22 22:57:00,45.9,43.9,24.02,South,180,40.0,46.0,93,0.01,,,0.01,meteohub,2013-05-23 04:57:00,
2013-05-22 23:02:00,45.9,43.9,24.02,SSE,158,40.0,46.0,93,0.01,,,0.01,meteohub,2013-05-23 05:02:00,
2013-05-22 23:07:00,45.9,43.9,24.02,SSE,158,40.0,46.0,93,0.01,,,0.01,meteohub,2013-05-23 05:07:00,
2013-05-22 23:12:00,45.3,43.7,24.02,SSE,158,39.0,47.0,94,0.01,,,0.01,meteohub,2013-05-23 05:12:00,
2013-05-22 23:17:00,45.3,43.7,24.02,South,180,36.0,47.0,94,0.01,,,0.01,meteohub,2013-05-23 05:17:00,
2013-05-22 23:22:00,45.0,43.7,24.02,SE,135,35.0,47.0,95,0.01,,,0.01,meteohub,2013-05-23 05:22:00,
2013-05-22 23:27:00,44.8,43.7,24.02,SSE,158,34.0,46.0,96,0.01,,,0.01,meteohub,2013-05-23 05:27:00,
2013-05-22 23:32:00,44.8,43.7,24.02,South,180,37.0,43.0,96,0.02,,,0.01,meteohub,2013-05-23 05:32:00,
2013-05-22 23:37:00,44.8,43.7,24.02,South,180,35.0,38.0,96,0.02,,,0.02,meteohub,2013-05-23 05:37:00,
2013-05-22 23:42:00,44.6,43.5,24.03,SSE,158,34.0,38.0,96,0.02,,,0.02,meteohub,2013-05-23 05:42:00,
2013-05-22 23:47:00,44.4,43.7,24.03,South,180,31.0,37.0,97,0.01,,,0.02,meteohub,2013-05-23 05:47:00,
2013-05-22 23:52:00,44.2,43.7,24.03,South,180,30.0,37.0,98,0.01,,,0.02,meteohub,2013-05-23 05:52:00,
2013-05-22 23:57:00,44.1,43.9,24.02,South,180,34.0,34.0,99,0.01,,,0.02,meteohub,2013-05-23 05:57:00,